2018-092D (44042 NORAD) Tracking and Keplerian Element Data

This shows tracking and keplerian element data for the satellite.

Feedback or suggestion? Click here.




ElementValue
Catalog44042
Name2018-092D
Epoch Orbit23416
Epoch Day13.56701657
Epoch Year2023
RAAN114.5744
Inclination51.6365
Eccentricity0.0002159
Argument of Perigee191.0327
Mean Anonmoly169.0839
Mean Motion15.54233476
Decay Rate0.00040961
L11 44042U 18092D 23013.56701657 .00040961 00000+0 62042-3 0 9996
L22 44042 51.6365 114.5744 0002159 191.0327 169.0839 15.54233476234160



Live tracking and technical data element details for 2018-092D (NORAD 44042). 2018-092D can be tracked NOW for your location showing map with azimuth and elevation plus other details from your city location.







IsCatalogInMostPopularTable: catalog: 44042, numindb: 295
Update: records affected: 1



GetName: 44042 2018-092D

Hit Count: updated at: Thu, 15 May 2025 10:17:34 GMT